Location: Austin
(30.3000°N, 97.7500°W)
Time: 14:02:22
(UTC-05:00)

Daily predictions for brighter satellites

Satellite Brightness Start Highest point End
(mag) Time Altitude Azimuth Time Altitude Azimuth Time Altitude Azimuth
Cosmos 44 4.2 20:47:41 10° SW 20:52:56 60° WNW 20:58:03 10° NNE
Cosmos 2151 Rocket 3.8 20:49:26 10° N 20:53:53 82° W 20:58:22 10° S
USA 276 3.3 20:52:38 10° NNW 20:55:10 27° NE 20:57:47 10° E
BREEZE-M DEB (TANK) 2.2 20:54:44 10° NW 20:56:52 75° NE 21:01:23 10° SE
CZ-4B R/B 3.8 20:55:56 10° SE 21:01:06 42° ENE 21:06:21 10° N
Cosmos 1025 Rocket 2.9 20:57:35 10° S 21:01:49 83° E 21:06:04 10° N
Resurs 01 Rocket 2.4 20:58:11 10° SE 21:02:09 34° ENE 21:06:08 10° N
Cosmos 2150 Rocket 4.5 20:57:34 10° S 21:02:35 42° E 21:07:41 10° NNE
NOSS 3-1 (A) 3.9 20:59:25 10° SSE 21:03:02 23° ESE 21:06:54 10° ENE
Palapa 6 Rocket 3.9 21:01:21 10° WSW 21:04:37 27° S 21:08:08 10° ESE
USA 186 2.2 21:03:14 10° SSE 21:06:06 39° ENE 21:08:55 10° N
USA 290 4.2 21:05:52 10° ESE 21:06:38 11° E 21:07:34 10° E
CARTOSAT-1 4.0 21:07:24 10° SE 21:11:25 42° ENE 21:15:27 10° N
ADEOS 4.4 21:08:23 10° S 21:13:27 53° W 21:18:31 10° NNW
CSL-04 Rocket 4.1 21:08:22 10° SE 21:13:33 45° ENE 21:18:48 10° N
Hubble Space Telescope 2.7 21:11:39 10° WSW 21:14:23 18° SSW 21:17:07 10° SSE
Centaur D-1AR AC-39 3.6 21:11:25 10° WSW 21:15:51 43° S 21:32:27 10° ESE
Cosmos 1943 Rocket 3.4 21:12:26 10° SSE 21:16:33 21° E 21:20:40 10° NE
Cosmos 2278 Rocket 2.7 21:13:29 10° S 21:18:39 38° ESE 21:23:50 10° NE
Cosmos 2181 Rocket 4.2 21:16:52 10° N 21:23:04 75° W 21:29:21 10° S
Tiangong -0.5 21:24:15 10° S 21:26:15 17° SE 21:26:15 17° SE
Cosmos 1437 Rocket 3.7 21:26:52 18° SE 21:28:30 24° E 21:31:29 10° NE
SJ-6B 4.4 21:25:29 10° SSW 21:28:59 34° W 21:32:34 10° NNW
SL-8 R/B 3.7 21:24:24 10° SW 21:29:10 84° NW 21:33:58 10° NE
SPOT 5 4.4 21:26:55 15° ESE 21:29:31 22° ENE 21:33:25 10° NNE
ATLAS 3B R/B 3.0 21:24:58 10° S 21:31:20 43° ESE 21:38:11 10° NE
Cosmos 921 Rocket 3.1 21:27:42 10° NNW 21:31:55 75° WSW 21:36:12 10° S
Okean-O 3.7 21:31:58 18° ESE 21:34:05 27° ENE 21:37:47 10° NNE
H-2A R/B 1.2 21:29:55 10° W 21:34:29 83° N 21:37:32 15° E
Cosmos 1975 Rocket 3.1 21:30:29 10° S 21:34:56 89° W 21:39:25 10° N
Cosmos 1455 Rocket 3.0 21:32:58 10° N 21:37:17 66° E 21:40:46 15° SSE
CSL-04 Debris 4.1 21:32:43 10° SSE 21:38:04 85° ENE 21:43:27 10° NNW
MOS 1-B Rocket 4.3 21:33:49 10° S 21:39:34 70° WSW 21:46:07 10° NNW
Feng Yun 1-1 Rocket 4.2 21:34:31 10° SSE 21:39:58 90° ENE 21:45:23 10° NNW
SL-16 Debris 2.7 21:37:20 10° W 21:40:23 59° S 21:41:04 38° ESE
Okean 1 Rocket 4.5 21:36:31 10° NNW 21:40:39 39° W 21:44:46 10° SSW
KM-V1 2.7 21:45:53 10° W 21:48:05 69° N 21:48:06 69° N
ATLAS CENTAUR R/B 2.8 21:46:28 10° NW 21:50:12 33° WSW 21:53:43 11° S
Cosmos 220 Rocket 4.1 21:46:17 10° N 21:50:23 52° ENE 21:52:06 31° SE
Cosmos 1606 2.9 21:47:48 10° N 21:51:08 40° E 21:51:45 36° ESE
OAO 3 Rocket 3.6 21:47:34 10° W 21:52:07 58° NNW 21:56:19 12° ENE
Orbus 7S? 3.7 21:51:26 10° NNW 21:53:54 32° NE 21:54:23 30° ENE
MOS 1-B 4.5 21:49:41 11° S 21:55:14 77° WSW 22:01:04 10° NNW
CZ-4 R/B 3.7 21:54:20 10° SSW 21:57:24 21° W 22:00:27 10° NW
GP-B 4.2 21:58:42 10° NNW 22:02:52 43° W 22:07:01 10° SSW
Cosmos 2341 Rocket 4.0 21:59:42 15° S 22:05:01 66° E 22:11:17 10° NNE
Cosmos 1536 Rocket 3.8 22:05:57 42° ESE 22:06:35 45° E 22:10:42 10° NNE
Intelsat 5-3 Rocket 3.7 22:07:45 10° WSW 22:10:31 22° SSW 22:10:31 22° SSW
Meteor 2-1 Rocket 4.1 22:07:23 10° N 22:12:55 84° W 22:16:08 26° S
MetOp-B 4.2 22:11:15 37° SE 22:13:13 59° ENE 22:18:28 10° N
DELTA 2 R/B (1) 3.5 22:19:00 10° SW 22:24:30 62° SSE 22:26:37 37° E
Cosmos 1869 3.7 22:25:14 10° NNW 22:29:01 55° W 22:29:44 47° SW
Okean O Rocket 3.2 22:26:52 16° SSW 22:29:36 29° W 22:33:23 10° NW
ERS-1 Rocket 3.1 22:29:20 51° E 22:29:51 54° ENE 22:34:43 10° N
Milstar 3 3.1 22:26:02 10° WSW 22:32:44 58° SSE 22:38:31 25° E
Cosmos 1833 Rocket 2.8 22:28:16 10° NNW 22:33:53 73° WSW 22:35:40 44° S
Cosmos 2366 rocket 3.9 22:33:05 26° S 22:36:43 82° W 22:42:53 10° N
Resurs 01 Rocket 4.3 22:36:10 10° SW 22:38:36 15° W 22:41:03 10° WNW
Cosmos 614 Rocket 3.7 22:34:07 10° NNW 22:39:11 84° ENE 22:39:42 71° SE
SL-8 Rocket 4.3 22:36:17 17° SSW 22:41:13 64° W 22:47:29 10° N
Spot 2 Rocket 3.5 22:54:59 68° NE 22:54:59 68° NE 22:59:46 10° N
Terra 1.8 22:55:24 75° N 22:55:24 75° N 22:59:44 10° N
USA 245 4.4 22:53:41 59° S 22:55:00 88° WSW 23:01:11 10° NNW
Cosmos 2369 Rocket 4.2 23:02:04 15° NE 23:02:04 15° NE 23:03:13 10° NE
Cosmos 1943 Rocket 3.4 22:54:40 10° SW 22:59:55 39° WNW 23:05:10 10° N
Lacrosse 5 rocket 3.6 23:04:30 16° NNE 23:04:30 16° NNE 23:05:25 10° NNE
Cosmos 2278 Rocket 4.5 22:58:23 10° WSW 23:02:45 23° WNW 23:07:09 10° N
Cosmos 2228 4.1 23:01:23 10° NNW 23:04:55 38° W 23:04:55 38° W
Cosmos 2082 Rocket 2.6 23:00:12 10° N 23:05:06 49° NE 23:05:06 49° NE
Cosmos 489 Rocket 4.3 23:06:11 72° E 23:06:11 72° E 23:12:06 10° NNE
ISS -0.7 23:04:07 10° N 23:04:32 11° N 23:04:32 11° N
SPOT 5 4.2 23:06:03 30° SW 23:07:12 33° W 23:11:51 10° NNW
SPOT 3 Rocket 3.7 23:10:51 68° N 23:10:51 68° N 23:15:25 10° N
MOS 1 Rocket 3.9 23:11:33 49° WNW 23:11:33 49° WNW 23:15:07 10° NNW
H-2A R/B 3.5 23:09:01 10° W 23:10:21 19° WNW 23:10:21 19° WNW
SL-08 R/B 4.4 23:22:02 74° NNE 23:22:02 74° NNE 23:27:34 10° N
ATLAS 3B R/B 4.4 23:15:59 10° WSW 23:22:07 32° NW 23:28:42 10° N
Ariane Rocket 3.5 23:23:38 56° NW 23:23:38 56° NW 23:27:48 10° NNW
USA 229 DEB 3.5 23:22:07 61° WSW 23:23:01 71° WNW 23:29:24 10° NNE
USA 229 3.5 23:22:21 63° WSW 23:23:07 71° WNW 23:29:30 10° NNE
USA 215 3.6 23:38:07 54° NE 23:38:18 54° NE 23:44:38 10° NNW
